Regional Weather Roundup
Issued by NWS

Home | Current Version | Previous Version | Graphics & Text | Print | Product List | Glossary On
Versions: 1 2 3 4 5 6 7 8 9 10 11 12 13 14 15 16 17 18 19 20 21 22 23 24 25 26 27 28 29 30 31 32 33 34 35 36 37 38 39 40 41 42 43 44 45 46 47 48 49 50
000
ASUS45 KCYS 311610
RWRWY

WYOMING REGIONAL WEATHER ROUNDUP
NATIONAL WEATHER SERVICE CHEYENNE WY
1000 AM MDT MON AUG 31 2015

NOTE:  "FAIR" INDICATES FEW OR NO CLOUDS BELOW 12,000 FEET
WITH NO SIGNIFICANT WEATHER AND/OR OBSTRUCTIONS TO VISIBILITY.

WYZ001-311700-
YELLOWSTONE NATIONAL PARK

CITY           SKY/WX    TMP DP  RH WIND       PRES   REMARKS
LK YELLOWSTONE   N/A     54  25  32 VRB7      30.26R
W YELLOWSTONE  NOT AVBL

$$
WYZ002>013-054>058-071-098>099-311700-
NORTHERN WYOMING

CITY           SKY/WX    TMP DP  RH WIND       PRES   REMARKS
JACKSON        SUNNY     59  30  33 S6        30.21S
CODY           FAIR      70  27  19 NW5       30.04S
GREYBULL       FAIR      67  41  38 SE5       30.01S
WORLAND        FAIR      66  41  40 CALM      30.02S
SHERIDAN       FAIR      68  43  40 E9        30.03F
BUFFALO        FAIR      65  43  44 S10       30.09F
GILLETTE       FAIR      65  44  46 NE6       30.06S
HULETT         FAIR      64  48  55 CALM      30.07S
NEWCASTLE      FAIR      66  52  59 NW8       30.03R

$$
WYZ014>020-022>026-101>103-311700-
CENTRAL WYOMING

CITY           SKY/WX    TMP DP  RH WIND       PRES   REMARKS
BIG PINEY      FAIR      57  22  25 SE6       30.26R
PINEDALE       FAIR      59  27  29 NW3       30.26S
DUBOIS         FAIR      63  19  19 NW20G26   30.20S
LANDER         FAIR      68  39  34 VRB6      30.09R
RIVERTON       FAIR      70  32  24 VRB5      30.10S
CASPER         FAIR      68  45  43 N10       30.11R
DOUGLAS        FAIR      72  47  40 N9        30.09S

$$
WYZ021-027>030-104>119-311700-
SOUTHERN WYOMING

CITY           SKY/WX    TMP DP  RH WIND       PRES   REMARKS
EVANSTON       FAIR      64  37  36 VRB6      30.25S
KEMMERER       FAIR      61  23  23 CALM      30.26R
FORT BRIDGER   SUNNY     63  37  39 CALM      30.28S
ROCK SPRINGS   FAIR      62  49  62 CALM      30.23F
DIXON          FAIR      64  54  69 CALM      30.27R
RAWLINS        FAIR      67  47  48 W6        30.24S
SARATOGA       FAIR      64  50  59 SE7       30.26S
LARAMIE        FAIR      69  45  41 SW10      30.24R
CHEYENNE       FAIR      77  47  34 W8        30.16R
TORRINGTON     CLOUDY    75  52  44 NW7       30.01R
PINE BLUFFS    FAIR      73  46  38 W10       30.11R

$$



USA.gov is the U.S. government's official web portal to all federal, state and local government web resources and services.